Location: Stadlberg
(47.9690°N, 13.2636°E)
Time: 19:33:13
(UTC+01:00)

ISS - Visible Passes

Search period start: 19 January 2021 00:00
Search period end: 29 January 2021 00:00
Orbit: 418 x 419 km, 51.6° (Epoch: 20 January)

Date Brightness Start Highest point End Pass type
(mag) Time Alt. Az. Time Alt. Az. Time Alt. Az.
19 Jan -1.5 17:55:16 10° SSE 17:56:36 12° SE 17:57:34 11° ESE visible
19 Jan -1.2 19:29:30 10° SW 19:30:32 18° SW 19:30:32 18° SW visible
20 Jan -3.1 18:41:59 10° SW 18:45:00 40° SSE 18:45:00 40° SSE visible
21 Jan -2.4 17:54:38 10° SSW 17:57:32 27° SE 17:59:23 17° E visible
21 Jan -1.5 19:30:46 10° WSW 19:32:21 25° W 19:32:21 25° W visible
22 Jan -3.9 18:43:00 10° WSW 18:46:22 87° SSE 18:46:40 72° ENE visible
23 Jan -3.6 17:55:19 10° SW 17:58:38 61° SSE 18:00:56 18° ENE visible
23 Jan -1.5 19:32:15 10° W 19:33:53 25° WNW 19:33:53 25° WNW visible
24 Jan -3.5 18:44:21 10° W 18:47:40 56° NNW 18:48:06 51° NNE visible
25 Jan -3.7 17:56:29 10° WSW 17:59:51 71° NNW 18:02:18 17° ENE visible
25 Jan -1.4 19:33:42 10° WNW 19:35:14 23° WNW 19:35:14 23° WNW visible
26 Jan -3.1 18:45:47 10° WNW 18:49:02 43° N 18:49:24 41° NNE visible
27 Jan -3.2 17:57:51 10° W 18:01:09 48° N 18:03:34 16° ENE visible
27 Jan -1.5 19:35:01 10° WNW 19:36:30 23° NW 19:36:30 23° NW visible
28 Jan -3.2 18:47:09 10° WNW 18:50:24 44° N 18:50:40 43° NNE visible
